STARLINK-4024 (52599 NORAD) Tracking and Keplerian Element Data

This shows tracking and keplerian element data for the satellite.

Feedback or suggestion? Click here.




ElementValue
Catalog52599
NameSTARLINK-4024
Epoch Orbit130
Epoch Day167.08334491
Epoch Year2022
RAAN280.8805
Inclination53.2172
Eccentricity0.0001285
Argument of Perigee48.2758
Mean Anonmoly256.9382
Mean Motion15.54086958
Decay Rate-0.00701233
L11 52599U 22052B 22167.08334491 -.00701233 00000+0 -11592-1 0 9997
L22 52599 53.2172 280.8805 0001285 48.2758 256.9382 15.54086958 1303

Live tracking and technical data element details for STARLINK-4024 (NORAD 52599). STARLINK-4024 can be tracked NOW for your location showing map with azimuth and elevation plus other details from your city location.

Track the satellite on the map from your city or location and see movement details for azimuth, elevation, latitude, longitude, range, height, and movement on the map or in text.







IsCatalogInMostPopularTable: catalog: 52599, numindb: 1
Update: records affected: 1



GetName: 52599 STARLINK-4024

Hit Count: updated at: Mon, 27 Jun 2022 04:50:17 GMT